Theta_e
349 349 347 344 344 346 348 349 354 356 357 357 354 352 351 354 355 352 350 346 343 343 344 343 343 343 343 344 346 346 346 346 347 349 350 350 349 347 347 348 347 348 347
350 345 347 344 344 349 354 355 357 357 358 356 353 354 355 355 353 352 347 347 340 338 336 336 336 336 337 337 339 340 343 343 342 344 346 347 348 346 345 345 346 345 346
352 348 342 342 344 355 357 356 357 361 359 357 352 351 352 352 349 349 347 343 343 337 332 330 332 332 333 334 335 336 337 337 335 339 339 341 342 342 342 343 344 345 345
351 350 343 340 349 354 353 357 360 354 353 349 346 347 348 347 346 344 343 340 337 333 335 329 328 327 329 331 332 332 332 333 333 335 335 333 333 334 338 340 340 342 341
349 347 344 346 357 355 359 356 353 353 347 343 341 342 346 344 345 341 340 337 334 331 329 332 331 326 325 328 328 329 330 330 331 330 331 331 331 331 332 333 336 338 338
349 348 350 354 357 355 353 354 352 348 342 339 338 338 343 343 343 341 337 333 331 329 327 327 326 326 324 325 326 328 329 329 329 329 329 329 329 329 330 331 332 333 334
349 350 350 355 355 353 350 346 346 343 336 337 336 337 338 343 342 339 336 331 328 325 324 324 325 326 327 330 328 327 328 329 330 330 328 328 327 328 328 329 329 329 331
354 353 353 347 346 342 340 337 338 338 336 335 332 329 325 329 336 338 332 327 325 323 323 325 326 328 327 327 328 326 327 328 330 329 327 326 327 328 328 328 328 329 329
350 348 345 344 337 333 332 334 332 333 333 337 331 326 320 317 319 323 325 321 325 322 324 325 326 327 327 328 328 328 325 326 326 326 324 324 325 326 327 327 327 327 328
342 340 337 335 340 335 330 330 331 333 331 326 327 325 324 321 312 310 318 319 322 323 326 325 326 327 328 327 327 326 323 322 323 324 324 323 323 323 323 323 324 326 327
342 340 340 340 336 327 330 326 327 326 324 322 322 321 322 320 322 315 310 314 320 322 324 324 325 325 327 327 325 325 323 321 321 321 321 322 322 322 322 322 322 323 324
334 336 335 334 329 330 327 326 325 325 324 325 324 321 317 314 314 315 313 316 316 320 323 324 323 322 324 323 324 323 324 320 319 318 318 320 321 320 321 321 321 322 322
333 335 330 331 330 328 326 326 325 325 324 323 323 319 318 317 318 318 316 315 315 319 322 324 323 324 323 323 324 322 325 319 319 318 318 318 319 318 318 319 319 319 320
328 326 330 329 325 323 324 325 323 323 324 322 320 321 319 321 322 320 317 314 312 315 318 320 322 322 323 323 324 324 324 319 319 317 317 318 318 316 316 316 316 316 316
326 325 324 323 323 323 324 325 323 322 323 322 322 322 322 324 323 320 318 315 311 309 312 318 317 324 323 324 323 324 323 321 321 317 316 317 317 316 315 314 314 315 315
328 324 322 321 322 321 321 321 321 321 321 321 322 323 322 321 321 321 317 317 316 313 311 317 318 322 323 322 323 323 324 322 319 317 317 317 316 315 315 314 313 313 314
325 322 322 320 320 320 319 321 321 319 319 321 321 320 319 321 319 319 319 319 318 317 313 316 319 322 323 322 322 322 322 321 321 316 316 316 315 314 313 313 312 311 309
323 321 320 318 317 317 320 320 319 320 320 319 321 320 317 317 319 321 318 319 319 319 316 314 318 317 320 321 321 320 319 318 319 318 315 316 314 312 312 311 311 309 306
321 320 318 317 316 317 318 320 321 320 321 321 319 317 317 318 317 318 319 318 317 316 317 314 314 316 317 317 316 318 317 317 316 317 316 316 313 313 313 312 310 308 306
319 317 317 317 317 317 318 319 320 321 320 321 320 319 318 317 316 316 316 317 316 314 314 312 312 312 313 316 313 311 309 312 312 314 315 314 312 314 313 312 311 310 306
316 316 316 316 316 314 310 317 320 318 319 319 320 318 317 311 306 307 310 312 311 309 309 308 308 309 309 308 307 308 307 309 311 313 313 313 314 314 314 313 313 310 306
315 315 314 314 313 309 297 300 305 317 318 317 316 316 316 313 311 305 304 304 303 306 305 304 305 305 306 305 305 305 306 305 302 311 308 308 310 310 312 314 306 306 304
314 314 313 312 310 308 296 296 302 318 316 314 310 312 312 310 306 307 307 307 307 302 301 302 303 302 302 303 304 304 304 301 301 307 309 306 309 308 311 310 305 303 303
311 311 311 312 309 302 295 295 298 316 315 314 312 312 312 307 299 298 304 307 307 308 306 301 301 302 303 304 304 303 304 304 306 307 308 299 306 306 308 309 304 303 302
310 310 310 310 309 305 294 294 302 315 312 311 308 304 305 303 292 292 300 302 302 303 300 299 298 296 295 295 297 301 300 298 296 298 304 299 301 301 304 306 307 304 301
310 309 308 309 301 308 292 294 298 312 311 311 309 306 293 294 290 290 297 298 297 297 300 302 304 304 302 304 300 304 300 297 297 295 303 298 298 298 295 305 303 304 301
Wind_Speed
7 6 5 5 5 4 5 4 3 2 2 1 4 5 6 6 7 6 5 15 13 13 14 14 14 14 14 14 13 14 14 14 14 12 11 10 10 11 13 14 14 13 14
6 6 6 6 5 4 3 3 2 2 2 3 3 5 7 6 7 7 6 4 12 12 12 13 15 15 15 15 15 15 14 14 15 15 14 13 12 12 13 15 16 15 14
7 6 6 5 5 3 4 4 4 1 2 2 4 5 7 7 6 6 7 6 3 11 9 12 14 15 15 15 16 16 16 16 18 17 17 18 16 14 15 15 17 17 15
7 6 5 6 5 5 4 3 2 3 3 4 5 5 4 5 5 5 5 6 7 7 2 11 10 10 13 16 16 17 17 17 17 16 15 16 16 17 17 16 15 15 16
8 6 5 5 5 3 2 4 4 3 4 3 4 5 5 10 6 5 5 5 5 7 7 9 7 6 8 11 14 17 18 18 17 17 18 17 18 17 17 18 16 15 16
7 6 4 3 4 4 4 2 5 5 4 5 6 7 8 9 5 4 4 5 5 8 8 9 9 6 3 6 11 17 18 18 18 19 19 18 20 20 19 18 18 18 18
6 6 3 3 3 4 8 7 5 7 7 7 5 9 8 7 7 5 4 5 6 10 9 8 6 6 7 9 11 16 18 19 19 20 20 19 19 18 19 18 18 18 18
7 7 8 8 9 6 5 7 10 6 5 4 5 7 6 5 7 6 6 6 8 9 8 8 7 7 8 8 10 8 15 19 19 20 19 18 19 19 19 18 18 18 18
13 11 11 9 9 7 4 6 7 7 3 4 4 4 6 6 8 4 5 6 8 7 7 6 6 7 8 9 8 11 19 18 18 18 19 18 19 19 20 19 18 17 17
12 10 8 8 8 6 6 5 4 2 1 3 2 1 3 3 4 6 4 8 7 5 6 7 7 7 9 8 11 12 17 18 16 18 19 19 18 19 20 20 19 18 17
11 12 12 13 10 6 6 7 6 3 2 1 2 2 3 3 3 6 9 11 8 6 7 7 8 9 10 10 10 11 14 16 17 17 17 17 19 19 19 20 20 20 18
5 8 9 9 9 7 9 7 5 4 3 1 2 3 4 4 6 6 8 8 8 7 5 4 5 4 9 6 9 12 10 10 13 13 16 16 17 18 19 19 19 19 19
7 7 6 8 8 6 8 7 4 4 3 3 2 3 3 3 5 5 6 8 10 7 4 3 7 5 7 8 9 14 12 6 8 11 14 15 16 17 17 18 19 19 18
7 5 7 8 10 9 7 7 4 4 4 2 1 3 3 1 2 4 6 7 8 6 4 6 7 7 7 8 9 13 10 3 9 9 10 13 15 16 17 17 17 18 17
8 9 6 8 9 9 7 5 4 3 2 1 1 1 4 2 3 3 3 4 6 8 10 8 8 9 9 9 7 12 11 12 13 7 9 11 12 14 16 17 17 17 16
11 10 9 8 9 7 5 3 3 3 2 1 1 2 4 4 3 2 3 5 5 5 9 10 9 10 10 10 9 12 12 14 8 2 8 12 12 11 12 13 15 15 15
11 10 9 8 8 6 4 4 4 4 4 4 3 2 3 4 5 4 5 5 6 7 9 9 10 10 11 11 11 12 11 11 9 5 11 12 11 10 11 9 9 11 13
10 10 8 7 6 6 5 4 4 3 3 3 3 2 3 4 5 2 6 5 7 9 9 13 11 11 11 12 11 14 10 10 11 8 16 12 7 11 13 9 3 3 7
10 8 7 7 6 5 5 4 3 3 3 4 2 3 3 5 6 7 7 7 8 9 10 10 12 11 11 10 12 12 11 12 9 14 11 11 3 7 14 9 2 2 7
10 9 8 7 7 5 5 3 3 2 0 0 2 4 5 7 8 9 8 8 9 11 11 11 11 11 11 12 12 12 12 10 11 12 11 12 10 7 12 5 5 3 7
10 9 9 8 7 6 7 6 2 1 1 1 1 4 7 6 4 7 8 9 10 10 10 11 12 12 13 13 13 12 13 12 11 10 11 12 12 11 11 7 7 10 10
11 10 9 8 8 7 11 10 9 0 1 4 5 7 5 10 4 4 2 5 5 9 11 11 12 12 13 14 13 13 13 13 13 8 12 10 10 10 11 10 10 7 11
10 10 9 9 10 9 13 11 10 0 4 5 5 4 4 8 11 12 10 9 8 10 7 10 13 13 15 14 14 15 15 13 12 13 12 12 11 11 11 10 10 11 10
10 9 9 9 9 9 12 13 12 3 4 5 8 8 8 8 11 13 14 11 12 12 10 10 11 12 12 12 12 13 15 12 12 12 10 5 13 13 14 10 8 12 14
9 9 9 8 8 10 12 13 13 3 5 6 8 10 10 10 13 15 14 13 13 11 12 6 13 14 14 14 14 9 10 11 10 12 5 10 11 13 12 8 10 12 12
10 8 8 8 7 10 13 13 13 3 4 2 4 10 17 12 11 14 13 12 13 13 13 13 11 8 6 5 14 6 9 8 8 6 9 9 10 9 6 6 12 10 10
Wind_Direction
185 187 174 202 199 181 187 201 207 263 276 278 294 335 342 321 316 315 329 80 59 38 28 20 15 11 8 1 1 360 359 354 348 338 326 306 290 289 290 291 292 293 290
176 183 187 204 205 211 179 222 202 296 321 334 345 346 315 321 333 333 330 92 95 66 35 21 13 9 3 359 359 359 3 360 354 345 336 326 314 301 300 296 290 286 286
180 208 205 207 203 181 216 216 219 192 313 331 345 327 317 334 340 341 308 333 100 117 79 27 6 2 359 354 356 359 358 360 3 3 5 358 344 322 309 297 292 283 285
183 203 197 205 179 206 210 210 184 133 62 23 350 327 330 315 355 319 339 337 350 348 88 48 355 347 0 355 355 353 351 347 351 349 351 351 344 338 329 315 303 299 289
179 217 205 165 205 190 167 125 85 60 62 356 310 320 330 359 307 306 332 331 8 349 337 360 344 287 26 355 350 351 348 342 338 339 338 340 338 334 332 330 329 315 309
184 200 173 160 206 178 142 114 108 69 46 357 341 352 341 283 267 286 287 315 350 324 330 335 323 346 88 360 350 351 346 343 339 337 333 340 337 331 328 324 325 322 321
169 176 166 104 52 58 65 44 54 41 29 10 350 336 291 267 261 299 297 321 325 327 327 334 329 342 345 340 24 353 356 351 343 346 347 340 336 328 322 321 321 316 316
118 107 94 94 80 59 64 64 54 38 50 4 15 306 287 256 237 243 304 316 351 319 334 342 346 348 343 331 9 342 6 345 343 345 343 339 334 330 329 328 325 322 316
100 102 96 91 82 86 342 31 48 34 324 52 332 313 297 306 346 270 300 326 330 337 343 337 359 343 349 329 344 359 5 347 342 346 344 343 339 333 331 329 325 324 321
115 121 125 127 135 130 111 83 52 72 323 259 182 299 340 323 312 306 318 324 310 333 350 349 3 354 357 347 354 21 357 346 346 346 344 344 343 343 340 337 328 322 320
149 144 137 128 115 110 99 88 80 68 90 277 265 291 284 289 267 298 306 321 325 346 356 355 356 354 350 352 333 9 339 357 345 345 341 342 342 342 341 340 335 332 322
110 130 116 107 97 98 91 96 104 103 78 68 37 327 326 320 318 300 306 320 328 345 345 8 318 345 323 357 318 359 334 4 340 343 340 342 343 342 342 341 340 339 335
145 114 106 105 104 103 107 105 113 100 83 58 8 325 305 316 302 316 309 329 330 317 345 38 340 7 341 325 326 358 313 21 336 329 335 339 345 345 342 340 341 341 339
101 107 114 120 115 115 110 114 119 104 98 90 39 326 277 286 306 340 1 340 325 329 343 3 357 4 346 331 327 310 327 62 329 315 329 330 336 347 346 343 344 344 342
117 112 109 96 94 92 91 107 102 120 134 176 137 273 291 352 28 30 344 323 332 327 334 10 342 5 352 322 18 328 318 352 297 293 329 326 321 336 345 349 348 345 349
117 124 105 96 95 91 88 76 153 140 143 125 136 75 345 5 26 336 265 241 229 289 306 333 337 343 336 325 340 321 320 290 169 66 329 323 316 324 335 341 348 354 358
126 120 114 109 98 97 96 104 100 126 112 96 74 63 23 3 347 349 319 332 321 331 318 332 318 336 310 327 316 323 316 321 336 86 347 311 312 313 319 327 350 13 12
114 109 108 101 100 99 97 108 119 117 93 77 77 0 352 344 336 353 323 343 331 318 322 318 324 313 322 316 325 315 330 330 326 360 313 284 294 332 304 301 314 52 1
110 104 98 92 90 90 109 105 102 81 46 47 58 289 5 353 358 351 332 339 340 331 320 319 307 315 322 327 327 321 335 320 319 331 311 257 350 299 301 273 220 55 357
105 97 90 88 86 95 98 89 81 69 319 164 95 25 4 5 358 344 335 347 354 329 325 313 315 319 321 339 327 331 328 328 325 331 295 345 290 310 288 273 146 67 11
95 93 92 86 75 62 33 355 45 327 285 82 73 358 60 35 44 11 344 357 345 327 325 324 321 323 333 339 332 333 322 321 329 314 352 330 332 332 320 321 10 19 3
87 84 80 78 69 57 6 352 324 8 84 34 27 16 6 43 23 156 43 301 302 329 322 325 318 329 327 322 332 329 319 332 332 336 322 315 336 315 306 340 51 26 350
96 92 90 82 67 54 7 352 331 276 68 52 40 20 349 48 13 348 328 296 256 217 246 316 318 327 321 334 327 327 328 322 316 311 329 328 329 311 342 348 57 11 2
95 90 87 82 75 53 9 352 334 75 84 74 39 25 27 28 22 348 322 333 331 322 343 321 324 316 319 324 322 318 305 321 317 337 13 316 324 338 332 324 51 19 355
96 87 80 71 74 55 14 351 328 128 88 73 79 42 24 24 10 349 336 341 329 333 333 258 252 258 258 256 261 306 335 329 331 328 26 346 324 323 317 321 356 8 349
96 91 85 80 48 66 31 0 349 28 52 74 125 120 67 24 9 358 342 349 336 344 324 325 326 319 274 319 232 300 337 328 324 317 352 332 324 337 319 304 342 339 341